sat.trackr.live / text

‹ back to catalog

ONEWEB-0259

NORAD 48977 · 2021-060L

PAYLOAD ACTIVE UNKNOWN

§ Identity

Operator
Country
UK
Launch date
2021-07-01
Launch site
VOSTO
Launch vehicle
Mass (kg)
RCS (m²)

Purposes: comms

External: N2YO · Heavens-Above · Gunter

§ Orbital elements

Epoch: 2026-05-25T05:21:01.191744Z

Period
109.37 min
Inclination
87.9105°
Eccentricity
0.0001842
Mean motion
13.16593365 rev/d
Perigee alt
1,196.4 km
Apogee alt
1,199.2 km
Semi-major
7,575.9 km
B*
1.1820e-4
RAAN
233.3418°
Arg perigee
103.5820°
Mean anomaly
256.5516°
Rev number
23,660

§ Raw data

ONEWEB-02591 48977U 21060L   26145.22293046  .00000058  00000+0  11820-3 0  99972 48977  87.9105 233.3418 0001842 103.5820 256.5516 13.16593365236604

JSON: /api/v1/satellites/48977 · /tle

For live sub-satellite position, see the globe view (requires WebGL).

§ Visibility from observer

Set your observer location to see the next 7 days of passes ≥ 10°. The values pass through the URL so the page stays shareable.

No JS? Fill the form by hand. The geolocation button needs JavaScript.